User: anonymous   Login
Location: Unspecified
(0.0000°N, 0.0000°E)
Time: 23:13:26
(UTC+01:00)
Language:

Cosmos 1898 Rocket - Orbit

View from above orbital plane
View from above orbital plane
View from above satellite
View from above satellite

Ground track
Ground track

The orbit data is extracted from the following two-line orbital elements,

1 18586U 87098B   15027.37704334  .00000147  00000-0  58907-4 0  2297
2 18586 074.0073 100.4636 0021367 359.5208 071.5378 14.36553648422163
Epoch (UTC): 27 January 2015 09:02:56
Eccentricity: 0.0021367
inclination: 74.0073°
perigee height: 754 km
apogee height: 785 km
right ascension of ascending node: 100.4636°
argument of perigee: 359.5208°
revolutions per day: 14.36553648
mean anomaly at epoch: 71.5378°
orbit number at epoch: 42216

The dashed part of the orbit path shows where the satellite is in the earth's shadow,  

DLR